period_start,C,m1,H,J0,J1,J2,J3,J4,J5,JA,JB,JC,JD,JJ,JK,JN,#
2016-12-03 00:04:06,0.39,8.49,0.00,16.49,21.04,24.89,15.03,52.16,1016.98,2046.99,1469.35,1612.75,1826.41,599.89,609.59,33.60,0000 0000 0000 0000 000000
2016-12-03 00:09:07,0.38,8.51,0.00,16.49,21.04,24.88,15.02,52.13,1016.93,2046.99,1466.99,1610.76,1824.16,600.05,609.62,33.65,0000 0000 0000 0000 000000
2016-12-03 00:14:09,0.36,8.53,0.00,16.48,21.04,24.89,14.96,52.13,1016.95,2046.99,1464.67,1608.88,1821.88,599.86,609.46,33.70,0000 0000 0000 0000 000000
2016-12-03 00:19:10,0.40,8.55,0.00,16.49,21.04,24.88,15.02,52.15,1017.08,2046.99,1462.11,1606.86,1819.62,600.02,609.76,33.75,0000 0000 0000 0000 000000
2016-12-03 00:24:11,0.35,8.57,0.00,16.47,21.04,24.92,14.91,52.17,1017.07,2046.99,1459.76,1604.98,1817.44,599.73,609.47,33.80,0000 0000 0000 0000 000000
2016-12-03 00:29:13,0.39,8.59,0.00,16.46,21.04,24.91,15.01,52.23,1017.07,2046.99,1457.34,1603.03,1815.22,599.73,609.54,33.85,0000 0000 0000 0000 000000
2016-12-03 00:34:14,0.45,8.61,0.00,16.48,21.04,24.90,15.01,52.13,1017.09,2046.99,1454.66,1600.83,1812.54,600.37,610.12,33.90,0000 0000 0000 0000 000000
2016-12-03 00:39:15,0.57,8.63,0.00,16.49,21.04,24.90,14.99,52.10,1017.10,2046.99,1450.93,1598.15,1809.33,600.09,609.73,33.95,0000 0000 0000 0000 000000
2016-12-03 00:44:16,0.58,8.66,0.00,16.47,21.03,24.87,15.00,52.19,1017.10,2046.99,1447.00,1595.32,1806.13,600.05,609.80,34.01,0000 0000 0000 0000 000000
2016-12-03 00:49:18,0.59,8.69,0.00,16.46,21.02,24.88,14.94,52.17,1017.10,2046.99,1443.06,1592.43,1802.89,599.98,609.77,34.06,0000 0000 0000 0000 000000
2016-12-03 00:54:19,0.56,8.72,0.00,16.46,21.02,24.87,14.96,52.22,1017.10,2046.99,1439.35,1589.62,1799.69,599.48,609.45,34.11,0000 0000 0000 0000 000000
2016-12-03 00:59:20,0.60,8.75,0.47,16.44,21.01,24.85,14.98,52.15,1017.10,2046.99,1435.48,1586.77,1796.47,599.78,609.40,34.16,0000 0000 0000 0000 000000
2016-12-03 01:04:22,0.56,8.78,1.00,16.46,20.99,24.85,15.06,52.13,1017.11,2046.99,1431.85,1584.04,1793.39,600.30,610.14,34.21,0000 0000 0000 0000 000000
2016-12-03 01:09:23,0.52,8.81,1.00,16.44,20.99,24.87,15.04,52.21,1017.12,2046.99,1428.20,1581.40,1790.56,599.95,609.89,34.26,0000 0000 0000 0000 000000
2016-12-03 01:14:24,0.48,8.84,1.00,16.44,20.99,24.80,15.00,52.31,1017.19,2046.99,1425.10,1579.09,1788.00,599.93,609.81,34.31,0000 0000 0000 0000 000000
2016-12-03 01:19:26,0.48,8.86,1.00,16.41,20.97,24.79,15.04,52.31,1017.35,2047.00,1422.03,1576.68,1785.33,600.34,610.19,34.36,0000 0000 0000 0000 000000
2016-12-03 01:24:27,0.52,8.88,1.00,16.42,20.97,24.78,15.02,52.30,1017.44,2047.00,1418.87,1574.20,1782.38,600.08,610.15,34.41,0000 0000 0000 0000 000000
2016-12-03 01:29:29,0.53,8.91,1.00,16.42,20.97,24.82,15.02,52.42,1017.50,2047.00,1415.50,1571.59,1779.43,600.02,610.15,34.46,0000 0000 0000 0000 000000
2016-12-03 01:34:30,0.55,8.94,1.00,16.43,20.97,24.81,15.00,52.38,1017.31,2047.00,1411.97,1568.95,1776.52,599.99,609.92,34.51,0000 0000 0000 0000 000000
2016-12-03 01:39:31,0.53,8.97,1.00,16.41,20.97,24.81,14.99,52.39,1017.32,2047.00,1408.55,1566.36,1773.61,599.98,610.13,34.56,0000 0000 0000 0000 000000
2016-12-03 01:44:32,0.55,8.99,1.00,16.39,20.96,24.81,15.03,52.31,1017.34,2047.00,1405.53,1563.78,1770.54,599.94,609.96,34.61,0000 0000 0000 0000 000000
2016-12-03 01:49:33,0.65,9.03,1.00,16.39,20.95,24.79,14.97,52.33,1017.33,2047.00,1401.45,1560.73,1767.10,600.01,610.09,34.66,0000 0000 0000 0000 000000
2016-12-03 01:54:35,0.70,9.06,1.00,16.39,20.95,24.80,15.01,52.34,1017.53,2047.00,1397.17,1557.57,1763.57,599.88,609.98,34.71,0000 0000 0000 0000 000000
2016-12-03 01:59:36,0.61,9.09,1.00,16.38,20.94,24.77,15.06,52.47,1017.59,2047.00,1393.01,1554.53,1760.28,600.12,610.46,34.76,0000 0000 0000 0000 000000
2016-12-03 02:04:37,0.54,9.12,1.00,16.39,20.94,24.77,14.99,52.43,1017.58,2047.00,1389.60,1551.98,1757.39,600.04,610.22,34.81,0000 0000 0000 0000 000000
2016-12-03 02:09:39,0.45,9.15,1.00,16.39,20.94,24.80,14.99,52.43,1017.59,2047.00,1386.69,1549.78,1754.92,600.05,610.29,34.86,0000 0000 0000 0000 000000
2016-12-03 02:14:40,0.43,9.17,1.00,16.39,20.94,24.81,15.01,52.48,1017.58,2047.00,1383.95,1547.66,1752.55,599.74,610.04,34.91,0000 0000 0000 0000 000000
2016-12-03 02:19:41,0.46,9.19,1.00,16.36,20.94,24.75,15.02,52.48,1017.58,2047.00,1381.26,1545.50,1750.07,600.36,610.59,34.96,0000 0000 0000 0000 000000
2016-12-03 02:24:42,0.42,9.22,1.00,16.36,20.94,24.79,15.01,52.49,1017.58,2047.01,1378.77,1543.47,1747.66,600.06,610.35,35.02,0000 0000 0000 0000 000000
2016-12-03 02:29:44,0.41,9.24,0.43,16.38,20.94,24.80,15.03,52.36,1017.58,2047.00,1376.34,1541.55,1745.41,600.14,610.44,35.07,0000 0000 0000 0000 000000
2016-12-03 02:34:45,0.43,9.26,0.00,16.36,20.94,24.82,15.05,52.36,1017.57,2047.00,1373.69,1539.50,1743.18,600.25,610.44,35.12,0000 0000 0000 0000 000000
2016-12-03 02:39:46,0.43,9.28,0.00,16.35,20.94,24.82,14.97,52.48,1017.59,2047.00,1371.17,1537.54,1740.91,599.59,609.93,35.17,0000 0000 0000 0000 000000
2016-12-03 02:44:47,0.39,9.30,0.00,16.35,20.94,24.79,14.99,52.48,1017.59,2047.00,1368.91,1535.71,1738.82,600.30,610.61,35.22,0000 0000 0000 0000 000000
2016-12-03 02:49:48,0.34,9.32,0.00,16.34,20.94,24.79,14.93,52.52,1017.59,2047.00,1366.74,1534.20,1736.79,599.72,610.05,35.27,0000 0000 0000 0000 000000
2016-12-03 02:54:50,0.41,9.34,0.00,16.35,20.94,24.83,14.96,52.41,1017.59,2047.00,1364.55,1532.35,1734.61,599.93,610.18,35.32,0000 0000 0000 0000 000000
2016-12-03 02:59:51,0.61,9.37,0.00,16.32,20.94,24.79,15.07,52.55,1017.59,2047.00,1361.30,1529.63,1731.44,600.04,610.41,35.37,0000 0000 0000 0000 000000
2016-12-03 03:04:52,0.79,9.40,0.00,16.32,20.94,24.82,14.99,52.49,1017.59,2047.00,1356.47,1526.25,1727.71,599.66,610.02,35.42,0000 0000 0000 0000 000000
2016-12-03 03:09:54,0.57,9.44,0.00,16.33,20.94,24.80,14.97,52.46,1017.59,2047.00,1352.83,1523.46,1724.81,599.94,610.29,35.47,0000 0000 0000 0000 000000
2016-12-03 03:14:55,0.74,9.47,0.00,16.34,20.93,24.77,15.07,52.38,1017.59,2047.00,1348.81,1520.29,1721.16,599.94,610.24,35.52,0000 0000 0000 0000 000000
2016-12-03 03:19:57,0.84,9.51,0.00,16.34,20.92,24.77,15.06,52.52,1017.60,2047.00,1343.81,1516.47,1716.90,600.11,610.47,35.57,0000 0000 0000 0000 000000
2016-12-03 03:24:58,0.90,9.55,0.00,16.33,20.92,24.78,14.99,52.51,1017.59,2047.00,1338.64,1512.53,1712.54,599.85,610.20,35.62,0000 0000 0000 0000 000000
2016-12-03 03:30:00,0.90,9.60,0.60,16.33,20.91,24.77,15.04,52.49,1017.59,2047.00,1333.20,1508.59,1708.22,599.90,610.27,35.67,0000 0000 0000 0000 000000
2016-12-03 03:35:01,0.88,9.65,1.00,16.32,20.90,24.74,15.06,52.52,1017.61,2047.00,1327.80,1504.71,1703.85,600.05,610.38,35.72,0000 0000 0000 0000 000000
2016-12-03 03:40:02,0.88,9.69,1.00,16.33,20.89,24.70,15.03,52.52,1017.60,2047.00,1322.75,1500.86,1699.55,600.21,610.57,35.77,0000 0000 0000 0000 000000
2016-12-03 03:45:03,0.94,9.74,1.00,16.33,20.89,24.71,15.00,52.50,1017.60,2047.00,1317.27,1496.86,1695.20,600.24,610.60,35.82,0000 0000 0000 0000 000000
2016-12-03 03:50:04,0.90,9.79,1.00,16.33,20.87,24.72,15.01,52.65,1017.60,2047.00,1311.94,1492.92,1690.91,599.67,610.11,35.88,0000 0000 0000 0000 000000
2016-12-03 03:55:06,1.04,9.83,1.00,16.33,20.87,24.69,15.06,52.54,1017.60,2047.00,1306.39,1488.66,1686.05,599.78,610.29,35.93,0000 0000 0000 0000 000000
2016-12-03 04:00:07,1.27,9.89,1.00,16.33,20.87,24.68,14.97,52.47,1017.60,2047.00,1299.15,1483.30,1680.18,600.19,610.50,35.98,0000 0000 0000 0000 000000
2016-12-03 04:05:08,1.13,9.95,1.00,16.33,20.85,24.67,14.97,52.61,1017.61,2047.00,1292.46,1478.35,1674.74,599.69,610.08,36.03,0000 0000 0000 0000 000000
2016-12-03 04:10:09,1.07,10.01,1.00,16.31,20.84,24.69,14.98,52.53,1017.59,2047.00,1286.33,1473.77,1669.63,600.25,610.56,36.08,0000 0000 0000 0000 000000
2016-12-03 04:15:11,1.06,10.06,1.00,16.32,20.84,24.67,14.97,52.55,1017.60,2047.00,1280.26,1469.38,1664.63,599.87,610.29,36.13,0000 0000 0000 0000 000000
2016-12-03 04:20:12,1.01,10.12,1.00,16.32,20.82,24.70,15.06,52.63,1017.61,2047.00,1274.51,1465.09,1659.97,600.18,610.55,36.18,0000 0000 0000 0000 000000
2016-12-03 04:25:13,0.94,10.17,1.00,16.33,20.82,24.66,14.99,52.47,1017.61,2047.00,1269.16,1461.10,1655.59,599.89,610.16,36.23,0000 0000 0000 0000 000000
2016-12-03 04:30:15,0.93,10.21,1.00,16.31,20.82,24.69,15.06,52.67,1017.60,2047.00,1264.00,1457.25,1651.22,600.03,610.36,36.28,0000 0000 0000 0000 000000
2016-12-03 04:35:16,0.82,10.26,1.00,16.31,20.81,24.65,15.05,52.65,1017.64,2047.01,1259.32,1453.73,1647.30,600.09,610.71,36.33,0000 0000 0000 0000 000000
2016-12-03 04:40:18,0.82,10.30,1.00,16.29,20.79,24.70,15.01,52.73,1017.63,2047.02,1254.96,1450.44,1643.67,599.86,610.31,36.38,0000 0000 0000 0000 000000
2016-12-03 04:45:19,0.77,10.34,1.00,16.30,20.79,24.65,15.02,52.68,1017.62,2047.01,1250.61,1447.21,1640.07,599.99,610.48,36.43,0000 0000 0000 0000 000000
2016-12-03 04:50:20,0.80,10.38,1.00,16.29,20.79,24.65,14.99,52.71,1017.67,2047.04,1246.23,1444.01,1636.54,600.04,610.66,36.48,0000 0000 0000 0000 000000
2016-12-03 04:55:22,0.80,10.42,1.00,16.29,20.79,24.64,15.02,52.76,1017.82,2047.03,1241.77,1440.76,1632.94,599.98,610.59,36.53,0000 0000 0000 0000 000000
2016-12-03 05:00:23,0.70,10.46,1.00,16.29,20.78,24.63,15.00,52.84,1017.87,2047.09,1238.02,1437.80,1629.58,599.81,610.32,36.58,0000 0000 0000 0000 000000
2016-12-03 05:05:24,0.68,10.49,1.00,16.30,20.77,24.65,15.06,52.79,1018.06,2047.09,1234.71,1435.04,1626.38,599.85,610.55,36.63,0000 0000 0000 0000 000000
2016-12-03 05:10:25,0.70,10.53,1.00,16.29,20.77,24.66,15.04,52.71,1018.08,2047.06,1230.96,1432.26,1623.26,600.04,610.77,36.68,0000 0000 0000 0000 000000
2016-12-03 05:15:27,0.67,10.56,1.00,16.29,20.77,24.65,15.03,52.82,1018.08,2047.05,1227.21,1429.48,1620.12,599.98,610.83,36.73,0000 0000 0000 0000 000000
2016-12-03 05:20:29,0.67,10.60,1.00,16.27,20.77,24.64,15.05,52.71,1018.08,2047.04,1223.82,1426.78,1617.05,600.31,611.11,36.79,0000 0000 0000 0000 000000
2016-12-03 05:25:30,0.70,10.63,1.00,16.28,20.77,24.64,14.99,52.73,1018.08,2047.03,1220.18,1424.03,1613.98,599.84,610.53,36.84,0000 0000 0000 0000 000000
2016-12-03 05:30:31,0.71,10.67,1.00,16.27,20.77,24.66,15.06,52.72,1018.08,2047.03,1216.51,1421.24,1610.82,599.90,610.78,36.89,0000 0000 0000 0000 000000
2016-12-03 05:35:33,0.65,10.70,1.00,16.24,20.76,24.66,15.01,52.69,1018.09,2047.02,1213.06,1418.48,1607.74,599.94,610.75,36.94,0000 0000 0000 0000 000000
2016-12-03 05:40:34,0.66,10.74,1.00,16.24,20.75,24.63,15.05,52.78,1018.10,2047.03,1209.70,1415.90,1604.82,599.96,610.88,36.99,0000 0000 0000 0000 000000
2016-12-03 05:45:35,0.66,10.77,1.00,16.23,20.74,24.59,15.06,52.87,1018.12,2047.03,1206.34,1413.33,1601.98,600.21,611.08,37.04,0000 0000 0000 0000 000000
2016-12-03 05:50:36,0.73,10.81,1.00,16.20,20.74,24.60,15.03,52.86,1018.23,2047.04,1202.68,1410.44,1598.83,599.87,610.93,37.09,0000 0000 0000 0000 000000
2016-12-03 05:55:38,0.71,10.84,1.00,16.21,20.73,24.57,15.03,52.77,1018.41,2047.05,1199.11,1407.62,1595.74,599.85,610.94,37.14,0000 0000 0000 0000 000000
2016-12-03 06:00:39,0.67,10.88,1.00,16.24,20.72,24.59,14.99,52.77,1018.50,2047.06,1195.69,1404.92,1592.60,600.03,611.17,37.19,0000 0000 0000 0000 000000
2016-12-03 06:05:40,0.65,10.91,1.00,16.21,20.72,24.59,15.03,52.70,1018.33,2047.08,1192.64,1402.43,1589.83,600.16,611.25,37.24,0000 0000 0000 0000 000000
2016-12-03 06:10:42,0.68,10.94,1.00,16.19,20.70,24.59,15.02,52.79,1018.21,2047.14,1189.30,1399.80,1586.88,599.97,611.12,37.29,0000 0000 0000 0000 000000
2016-12-03 06:15:43,0.69,10.98,1.00,16.21,20.69,24.56,15.04,52.86,1018.34,2047.33,1186.04,1397.20,1583.95,599.97,611.13,37.34,0000 0000 0000 0000 000000
2016-12-03 06:20:44,0.62,11.01,1.00,16.20,20.69,24.57,15.10,52.77,1018.52,2047.21,1182.80,1394.60,1581.09,600.14,611.28,37.39,0000 0000 0000 0000 000000
2016-12-03 06:25:45,0.64,11.04,1.00,16.19,20.67,24.54,15.01,52.85,1018.54,2047.37,1179.78,1392.19,1578.41,599.93,611.16,37.44,0000 0000 0000 0000 000000
2016-12-03 06:30:47,0.60,11.07,1.00,16.19,20.67,24.52,15.02,52.87,1018.51,2047.41,1176.85,1389.87,1575.87,600.01,611.12,37.49,0000 0000 0000 0000 000000
2016-12-03 06:35:48,0.47,11.10,1.00,16.20,20.67,24.51,15.06,52.92,1018.57,2047.65,1174.67,1388.02,1573.75,600.14,611.37,37.54,0000 0000 0000 0000 000000
2016-12-03 06:40:49,0.36,11.12,1.00,16.17,20.67,24.49,15.04,52.89,1018.57,2047.64,1172.90,1386.54,1571.97,599.98,611.29,37.59,0000 0000 0000 0000 000000
2016-12-03 06:45:51,0.42,11.14,1.00,16.16,20.66,24.52,15.07,52.98,1018.57,2047.83,1171.08,1385.04,1570.31,600.13,611.39,37.64,0000 0000 0000 0000 000000
2016-12-03 06:50:52,0.50,11.16,1.00,16.14,20.64,24.50,15.06,52.92,1018.57,2047.89,1168.77,1383.20,1568.20,600.02,611.37,37.70,0000 0000 0000 0000 000000
2016-12-03 06:55:54,0.48,11.19,1.00,16.15,20.64,24.52,15.11,53.07,1018.60,2047.90,1166.39,1381.33,1566.08,600.18,611.52,37.75,0000 0000 0000 0000 000000
2016-12-03 07:00:55,0.43,11.21,0.20,16.16,20.64,24.49,15.02,52.98,1018.63,2047.94,1164.39,1379.68,1564.23,599.78,611.11,37.80,0000 0000 0000 0000 000000
2016-12-03 07:05:56,0.51,11.24,0.00,16.16,20.64,24.51,15.08,52.99,1018.76,2047.96,1162.05,1377.78,1562.10,600.23,611.58,37.85,0000 0000 0000 0000 000000
2016-12-03 07:10:58,0.50,11.26,0.00,16.16,20.64,24.50,15.07,52.95,1018.81,2047.96,1159.74,1375.81,1559.75,600.28,611.65,37.90,0000 0000 0000 0000 000000
2016-12-03 07:15:59,0.50,11.29,0.00,16.13,20.64,24.53,15.00,52.88,1018.88,2047.93,1157.40,1373.79,1557.46,599.88,611.40,37.95,0000 0000 0000 0000 000000
2016-12-03 07:21:00,0.52,11.32,0.00,16.13,20.64,24.55,15.05,52.73,1018.93,2047.89,1155.10,1371.78,1555.15,600.14,611.61,38.00,0000 0000 0000 0000 000000
2016-12-03 07:26:02,0.58,11.34,0.00,16.13,20.64,24.52,15.16,52.83,1019.05,2047.92,1152.47,1369.59,1552.65,600.24,611.90,38.05,0000 0000 0000 0000 000000
2016-12-03 07:31:03,0.59,11.37,0.80,16.13,20.64,24.55,15.09,52.81,1019.06,2047.83,1149.75,1367.23,1549.94,599.86,611.56,38.10,0000 0000 0000 0000 000000
2016-12-03 07:36:05,0.66,11.40,1.00,16.10,20.63,24.52,15.00,52.75,1019.06,2047.78,1146.74,1364.75,1547.19,599.91,611.66,38.15,0000 0000 0000 0000 000000
2016-12-03 07:41:06,0.63,11.44,1.00,16.10,20.62,24.46,15.10,52.90,1019.06,2047.76,1143.73,1362.26,1544.42,600.18,611.97,38.20,0000 0000 0000 0000 000000
2016-12-03 07:46:07,0.65,11.47,1.00,16.11,20.62,24.47,15.11,52.93,1019.06,2047.82,1140.80,1359.86,1541.72,600.23,611.90,38.25,0000 0000 0000 0000 000000
2016-12-03 07:51:08,0.62,11.50,1.00,16.11,20.61,24.48,15.18,52.92,1019.06,2047.96,1138.11,1357.54,1539.12,600.19,611.91,38.30,0000 0000 0000 0000 000000
2016-12-03 07:56:09,0.60,11.53,1.00,16.09,20.59,24.49,15.16,52.92,1019.06,2047.96,1135.39,1355.31,1536.60,600.12,611.84,38.35,0000 0000 0000 0000 000000
2016-12-03 08:01:11,0.61,11.56,1.00,16.09,20.59,24.47,15.05,52.89,1019.07,2047.96,1132.58,1353.02,1534.21,599.93,611.72,38.40,0000 0000 0000 0000 000000
2016-12-03 08:06:12,0.57,11.60,1.00,16.08,20.59,24.44,15.10,52.94,1019.07,2047.97,1129.90,1350.81,1531.76,599.85,611.65,38.45,0000 0000 0000 0000 000000
2016-12-03 08:11:13,0.58,11.62,1.00,16.09,20.57,24.44,15.14,53.06,1019.08,2047.97,1127.31,1348.65,1529.35,600.15,611.93,38.50,0000 0000 0000 0000 000000
2016-12-03 08:16:15,0.54,11.65,1.00,16.07,20.57,24.42,15.09,52.95,1019.12,2047.99,1124.88,1346.57,1527.01,599.98,611.81,38.56,0000 0000 0000 0000 000000
2016-12-03 08:21:16,0.57,11.68,1.00,16.06,20.57,24.42,15.04,52.90,1019.10,2047.99,1122.38,1344.43,1524.50,600.03,611.92,38.61,0000 0000 0000 0000 000000
2016-12-03 08:26:17,0.54,11.71,1.00,16.07,20.57,24.45,15.03,52.94,1019.18,2047.98,1119.87,1342.53,1522.18,600.15,612.01,38.66,0000 0000 0000 0000 000000
2016-12-03 08:31:18,0.53,11.74,1.00,16.07,20.57,24.41,15.00,52.91,1019.42,2047.99,1117.47,1340.55,1519.93,599.70,611.74,38.71,0000 0000 0000 0000 000000
2016-12-03 08:36:20,0.57,11.76,1.00,16.06,20.56,24.40,15.04,52.90,1019.33,2047.99,1114.98,1338.46,1517.55,599.89,611.87,38.76,0000 0000 0000 0000 000000
2016-12-03 08:41:21,0.57,11.79,1.00,16.04,20.55,24.41,15.05,52.97,1019.36,2047.99,1112.47,1336.32,1515.12,599.87,611.87,38.81,0000 0000 0000 0000 000000
2016-12-03 08:46:22,0.58,11.82,1.00,16.05,20.54,24.39,15.04,52.95,1019.30,2047.99,1109.97,1334.24,1512.74,600.00,611.91,38.86,0000 0000 0000 0000 000000
2016-12-03 08:51:24,0.55,11.85,1.00,16.04,20.54,24.38,15.15,52.94,1019.50,2047.99,1107.55,1332.18,1510.38,600.12,612.27,38.91,0000 0000 0000 0000 000000
2016-12-03 08:56:25,0.61,11.88,1.00,16.05,20.53,24.44,15.09,52.84,1019.55,2047.99,1105.06,1330.04,1507.96,599.97,612.09,38.96,0000 0000 0000 0000 000000
2016-12-03 09:01:26,0.56,11.91,1.00,16.03,20.52,24.39,15.04,52.91,1019.55,2047.99,1102.48,1327.89,1505.56,599.72,611.90,39.01,0000 0000 0000 0000 000000
2016-12-03 09:06:28,0.59,11.94,1.00,16.01,20.52,24.36,15.06,52.97,1019.55,2047.99,1100.02,1325.77,1503.21,599.85,612.04,39.06,0000 0000 0000 0000 000000
2016-12-03 09:11:29,0.59,11.97,1.00,16.04,20.51,24.38,15.05,52.92,1019.55,2048.00,1097.39,1323.54,1500.66,599.74,611.89,39.11,0000 0000 0000 0000 000000
2016-12-03 09:16:30,0.60,12.00,1.00,16.01,20.49,24.38,15.08,52.89,1019.55,2048.00,1094.80,1321.38,1498.24,599.95,612.22,39.16,0000 0000 0000 0000 000000
2016-12-03 09:21:31,0.57,12.03,1.00,15.99,20.49,24.38,15.04,52.98,1019.56,2048.00,1092.32,1319.30,1495.95,600.00,612.29,39.21,0000 0000 0000 0000 000000
2016-12-03 09:26:33,0.55,12.06,1.00,15.98,20.49,24.35,15.13,53.08,1019.55,2048.01,1089.96,1317.32,1493.71,600.00,612.25,39.26,0000 0000 0000 0000 000000
2016-12-03 09:31:34,0.53,12.09,1.00,15.99,20.48,24.34,15.03,53.01,1019.55,2048.01,1087.74,1315.36,1491.41,599.89,612.13,39.31,0000 0000 0000 0000 000000
2016-12-03 09:36:35,0.52,12.11,1.00,15.97,20.47,24.37,15.14,53.12,1019.56,2048.02,1085.66,1313.43,1489.20,599.98,612.23,39.36,0000 0000 0000 0000 000000
2016-12-03 09:41:37,0.55,12.14,1.00,15.98,20.47,24.35,15.09,53.12,1019.55,2048.01,1083.29,1311.42,1487.06,599.74,612.01,39.41,0000 0000 0000 0000 000000
2016-12-03 09:46:38,0.55,12.17,1.00,15.98,20.47,24.33,15.02,53.13,1019.55,2048.02,1080.96,1309.50,1484.90,599.87,612.12,39.47,0000 0000 0000 0000 000000
2016-12-03 09:51:40,0.51,12.19,1.00,15.99,20.47,24.31,15.02,53.12,1019.56,2048.05,1078.81,1307.67,1482.80,599.88,612.12,39.52,0000 0000 0000 0000 000000
2016-12-03 09:56:41,0.53,12.22,1.00,15.96,20.47,24.33,15.20,53.12,1019.56,2048.06,1076.64,1305.74,1480.60,600.11,612.35,39.57,0000 0000 0000 0000 000000
2016-12-03 10:01:42,0.46,12.25,1.00,15.96,20.46,24.34,15.03,53.17,1019.60,2048.04,1074.58,1304.01,1478.65,600.00,612.33,39.62,0000 0000 0000 0000 000000
2016-12-03 10:06:44,0.50,12.27,1.00,15.95,20.45,24.33,15.15,53.28,1019.69,2048.06,1072.53,1302.35,1476.77,599.97,612.35,39.67,0000 0000 0000 0000 000000
2016-12-03 10:11:45,0.50,12.30,1.00,15.94,20.44,24.33,15.09,53.22,1019.96,2048.04,1070.43,1300.58,1474.74,599.96,612.54,39.72,0000 0000 0000 0000 000000
2016-12-03 10:16:46,0.44,12.32,1.00,15.96,20.44,24.34,15.04,53.12,1020.02,2048.02,1068.51,1298.91,1472.84,599.94,612.54,39.77,0000 0000 0000 0000 000000
2016-12-03 10:21:48,0.43,12.34,1.00,15.95,20.44,24.33,15.06,53.16,1020.03,2048.03,1066.73,1297.43,1471.20,599.90,612.52,39.82,0000 0000 0000 0000 000000
2016-12-03 10:26:49,0.49,12.36,1.00,15.92,20.44,24.33,15.08,53.21,1020.03,2048.04,1064.76,1295.78,1469.40,599.97,612.65,39.87,0000 0000 0000 0000 000000
2016-12-03 10:31:50,0.54,12.39,0.03,15.92,20.42,24.33,15.06,53.42,1020.03,2048.04,1062.46,1293.99,1467.43,600.05,612.72,39.92,0000 0000 0000 0000 000000
2016-12-03 10:36:52,0.58,12.42,0.00,15.93,20.42,24.28,15.10,53.48,1020.03,2048.08,1060.11,1291.99,1465.22,600.20,612.83,39.97,0000 0000 0000 0000 000000
2016-12-03 10:41:53,0.61,12.45,0.00,15.92,20.42,24.27,15.03,53.38,1020.01,2048.08,1057.67,1289.89,1462.83,600.03,612.62,40.02,0000 0000 0000 0000 000000
2016-12-03 10:46:54,0.62,12.48,0.00,15.90,20.42,24.29,15.07,53.25,1020.00,2048.06,1055.18,1287.74,1460.25,599.75,612.44,40.07,0000 0000 0000 0000 000000
2016-12-03 10:51:55,0.65,12.52,0.00,15.91,20.42,24.28,15.09,53.36,1020.02,2048.11,1052.41,1285.52,1457.76,599.52,612.31,40.12,0000 0000 0000 0000 000000
2016-12-03 10:56:57,0.65,12.55,0.00,15.91,20.40,24.26,15.01,53.16,1020.03,2048.06,1049.70,1283.34,1455.30,599.80,612.53,40.17,0000 0000 0000 0000 000000
2016-12-03 11:01:58,0.66,12.58,1.00,15.91,20.40,24.27,15.22,53.28,1020.03,2048.05,1047.02,1281.13,1452.77,600.05,612.75,40.22,0000 0000 0000 0000 000000
2016-12-03 11:06:59,0.76,12.62,1.00,15.92,20.39,24.29,15.05,53.23,1020.03,2048.04,1043.90,1278.72,1449.99,600.02,612.65,40.27,0000 0000 0000 0000 000000
2016-12-03 11:12:01,0.78,12.66,1.00,15.90,20.39,24.27,15.10,53.33,1020.04,2048.10,1040.76,1276.15,1447.00,599.87,612.73,40.32,0000 0000 0000 0000 000000
2016-12-03 11:17:02,0.76,12.70,1.00,15.89,20.39,24.24,15.06,53.26,1020.04,2048.14,1037.59,1273.54,1444.07,599.88,612.51,40.38,0000 0000 0000 0000 000000
2016-12-03 11:22:03,0.67,12.73,1.00,15.88,20.37,24.23,15.05,53.37,1020.04,2048.14,1034.84,1271.23,1441.41,599.91,612.73,40.43,0000 0000 0000 0000 000000
2016-12-03 11:27:04,0.65,12.77,1.00,15.85,20.37,24.20,15.15,53.38,1020.04,2048.18,1032.26,1269.14,1438.99,600.22,613.05,40.48,0000 0000 0000 0000 000000
2016-12-03 11:32:06,0.58,12.80,1.00,15.86,20.37,24.22,15.05,53.31,1020.04,2048.13,1029.79,1267.13,1436.71,600.08,612.79,40.53,0000 0000 0000 0000 000000
2016-12-03 11:37:07,0.57,12.83,1.00,15.86,20.36,24.20,15.15,53.34,1020.04,2048.19,1027.45,1265.26,1434.60,600.32,613.16,40.58,0000 0000 0000 0000 000000
2016-12-03 11:42:08,0.60,12.86,1.00,15.84,20.34,24.21,15.01,53.34,1020.04,2048.43,1025.19,1263.46,1432.57,599.70,612.59,40.63,0000 0000 0000 0000 000000
2016-12-03 11:47:10,0.53,12.89,1.00,15.86,20.34,24.19,15.08,53.36,1020.04,2048.57,1023.14,1261.66,1430.58,599.88,612.68,40.68,0000 0000 0000 0000 000000
2016-12-03 11:52:11,0.55,12.91,1.00,15.85,20.33,24.20,15.09,53.43,1020.04,2048.45,1021.09,1259.81,1428.46,600.11,613.03,40.73,0000 0000 0000 0000 000000
2016-12-03 11:57:12,0.51,12.94,1.00,15.84,20.32,24.18,15.06,53.41,1020.02,2048.64,1019.08,1258.11,1426.51,599.86,612.79,40.78,0000 0000 0000 0000 000000
2016-12-03 12:02:14,0.48,12.97,1.00,15.83,20.32,24.18,15.00,53.41,1020.03,2048.51,1017.16,1256.53,1424.72,600.02,612.90,40.83,0000 0000 0000 0000 000000
2016-12-03 12:07:15,0.43,12.99,1.00,15.83,20.31,24.18,15.12,53.37,1020.03,2048.63,1015.48,1255.06,1423.03,600.39,613.27,40.88,0000 0000 0000 0000 000000
2016-12-03 12:12:17,0.43,13.01,1.00,15.82,20.30,24.15,15.09,53.36,1020.04,2048.49,1013.67,1253.63,1421.43,600.10,613.00,40.93,0000 0000 0000 0000 000000
2016-12-03 12:17:18,0.49,13.04,1.00,15.83,20.29,24.17,15.16,53.58,1020.04,2048.69,1011.86,1252.21,1419.83,600.26,613.14,40.98,0000 0000 0000 0000 000000
2016-12-03 12:22:20,0.43,13.06,1.00,15.84,20.29,24.18,15.10,53.62,1020.04,2048.87,1010.14,1250.81,1418.31,600.13,613.04,41.03,0000 0000 0000 0000 000000
2016-12-03 12:27:21,0.44,13.08,0.93,15.82,20.28,24.15,15.04,53.56,1020.04,2048.93,1008.55,1249.49,1416.79,599.74,612.65,41.08,0000 0000 0000 0000 000000
2016-12-03 12:32:22,0.36,13.10,0.00,15.83,20.27,24.17,15.07,53.65,1020.04,2048.97,1007.01,1248.19,1415.33,600.03,612.93,41.13,0000 0000 0000 0000 000000
2016-12-03 12:37:23,0.43,13.12,0.00,15.82,20.27,24.13,15.01,53.50,1020.04,2048.98,1005.60,1246.82,1413.71,599.95,612.84,41.19,0000 0000 0000 0000 000000
2016-12-03 12:42:24,0.37,13.14,0.00,15.80,20.27,24.19,15.15,53.48,1020.04,2048.98,1004.06,1245.54,1412.22,600.23,613.17,41.24,0000 0000 0000 0000 000000
2016-12-03 12:47:26,0.41,13.16,0.00,15.79,20.27,24.13,15.11,53.42,1020.04,2048.98,1002.58,1244.28,1410.78,600.39,613.40,41.29,0000 0000 0000 0000 000000
2016-12-03 12:52:27,0.34,13.18,0.00,15.79,20.27,24.15,15.10,53.54,1020.06,2048.98,1001.09,1243.07,1409.44,599.93,612.95,41.34,0000 0000 0000 0000 000000